STARLINK-1483 (45743 NORAD) Tracking and Keplerian Element Data

This shows tracking and keplerian element data for the satellite.

Feedback or suggestion? Click here.




ElementValue
Catalog45743
NameSTARLINK-1483
Epoch Orbit446
Epoch Day186.50001157
Epoch Year2020
RAAN193.5127
Inclination53.0002
Eccentricity0.000138
Argument of Perigee118.0398
Mean Anonmoly73.4856
Mean Motion15.5828447
Decay Rate-0.01183066
L11 45743U 20038P 20186.50001157 -.01183066 00000-0 -17046-1 0 9998
L22 45743 53.0002 193.5127 0001380 118.0398 73.4856 15.58284470 4466

Live tracking and technical data element details for STARLINK-1483 (NORAD 45743). STARLINK-1483 can be tracked NOW for your location showing map with azimuth and elevation plus other details from your city location.

Track the satellite on the map from your city or location and see movement details for azimuth, elevation, latitude, longitude, range, height, and movement on the map or in text.







IsCatalogInMostPopularTable: catalog: 45743, numindb: 4
Update: records affected: 1



GetName: 45743 STARLINK-1483

Hit Count: updated at: Sun, 05 Jul 2020 15:37:24 GMT